[[{"header":{"parameterUnit":"m.s-1","parameterCategory":1,"la1":30.2991,"la2":30.254,"lo1":-89.0895,"lo2":-89.0444,"dy":0.0017,"dx":0.0017,"nx":28,"ny":28,"refTime":"2023-08-10T09:00:00:Z","depth":0,"parameterNumber":2,"parameterNumberName":"U-component_of_WINDS"},"data":[0,0,0,0,0,0,0,0,0,0,0,0,0,0,0,0,0,0,0,0,0,0,0,0,0,0,0,0,0,0,0,0,0,0,0,0,0,0,0,0,0,0,0,0,0,0,0,0,0,0,0,0,0,0,0,0,0,0,3.4417,3.4418,0,3.4497,3.4498,3.4499,3.4401,3.4398,3.4394,3.4391,3.4473,3.4479,3.4484,0,0,0,0,0,0,0,0,0,0,0,0,0,3.4179,3.4184,3.4417,3.4418,3.4419,3.4497,3.4498,3.4499,3.4402,3.4398,3.4393,3.4389,3.4472,3.4478,3.4485,0,0,0,0,0,0,0,0,0,0,0,0,0,3.4273,3.4186,3.4417,3.438,3.4377,3.4496,3.4498,3.4499,3.4403,3.4398,3.4392,3.4387,3.4469,3.4477,3.4486,3.4645,0,0,3.4511,3.4515,0,0,0,0,0,0,0,0,3.4268,3.4282,3.4384,3.4383,3.438,3.4434,3.4444,3.4548,3.4404,3.4393,3.4391,3.4385,3.4465,3.4473,3.45,3.4649,3.4652,3.4512,3.4517,3.452,3.4523,0,0,0,0,0,0,0,3.4261,3.4278,3.4448,3.4386,3.4383,3.4359,3.4366,3.4463,3.4458,3.4394,3.4387,3.4398,3.4462,3.4492,3.4501,3.4653,3.4512,3.4519,3.4524,3.4527,3.4934,3.494,0,0,0,0,0,0,3.4259,3.4273,3.4446,3.4451,3.431,3.4368,3.4376,3.4422,3.4457,3.4457,3.4402,3.4393,3.448,3.4491,3.4504,3.469,3.452,3.4528,3.4533,3.4928,3.4935,3.4942,0,0,0,0,0,0,3.4255,3.4276,3.4443,3.436,3.438,3.4377,3.443,3.4426,3.4456,3.4463,3.4462,3.4434,3.4477,3.4492,3.461,3.4691,3.4532,3.4539,3.4922,3.4931,3.4939,3.5065,0,0,0,0,0,0,3.4248,3.4275,3.4335,3.4362,3.4384,3.4548,3.4435,3.4432,3.447,3.4459,3.4492,3.4493,3.4474,3.4598,3.4618,3.47,3.4546,3.4914,3.4926,3.4936,3.5054,3.5077,3.5098,0,0,0,0,0,3.424,3.4369,3.4339,3.436,3.446,3.4553,3.4566,3.4541,3.4477,3.4538,3.4542,3.4491,3.468,3.4611,3.4633,3.4718,3.4909,3.4922,3.4935,3.5044,3.5073,3.5097,0,0,0,0,0,0,3.4352,3.4371,3.4339,3.448,3.4516,3.4536,3.4612,3.4573,3.4627,3.4614,3.4581,3.459,3.4715,3.4729,3.4652,3.4873,3.4784,3.4802,3.4859,3.4886,3.4908,3.4901,3.4553,0,0,0,0,0,3.4393,3.4467,3.448,3.4603,3.4623,3.4615,3.4654,3.4632,3.4668,3.4682,3.4695,3.4732,3.4799,3.4844,3.4906,3.5056,3.5061,3.5126,3.5147,3.5165,3.5181,3.5259,3.5287,3.4985,3.4985,3.4984,0,0,3.4478,3.4498,3.4547,3.4626,3.4651,3.4727,3.4628,3.4714,3.477,3.4695,3.4806,3.4818,3.4856,3.499,3.505,3.5005,3.5265,3.5182,3.5196,3.5202,3.5275,3.5304,3.5329,3.4994,3.4992,3.4991,0,0,3.4672,3.4696,3.48,3.4827,3.4865,3.4859,3.4884,3.4911,3.4916,3.5027,3.4972,3.5038,3.5155,3.5184,3.5214,3.5418,3.5372,3.544,3.5553,3.5629,3.5653,3.5674,3.5744,3.577,3.5455,3.5456,3.5456,0,3.4773,3.4887,3.4858,3.4947,3.4983,3.4919,3.5023,3.5051,3.5108,3.5134,3.5083,3.5227,3.5249,3.5387,3.5437,3.5464,3.549,3.5435,3.5652,3.5672,3.5691,3.5758,3.5785,3.5463,3.5462,3.5462,3.5461,0,3.5008,3.5087,3.5167,3.5223,3.5267,3.5364,3.5349,3.5398,3.5372,3.5371,3.5484,3.5508,3.5573,3.5604,3.5581,3.5739,3.571,3.5657,3.5566,3.5728,3.579,3.5816,3.5474,3.5472,3.5469,3.5467,0,0,3.5274,3.5312,3.5342,3.5365,3.5403,3.5464,3.5557,3.562,3.5661,3.5703,3.5779,3.5879,3.5829,3.5863,3.5842,3.5909,3.6066,3.5847,3.5847,3.5885,3.624,3.6279,3.6309,3.6037,3.6042,3.6046,3.6236,0,3.5466,3.5627,3.5603,3.5758,3.5829,3.577,3.585,3.5882,3.5883,3.5944,3.5946,3.6016,3.5946,3.5966,3.603,3.6034,3.6137,3.602,3.6106,3.6109,3.6096,3.6342,3.6383,3.6561,3.626,3.6265,3.6268,0,3.5712,3.5762,3.5923,3.5948,3.5977,3.605,3.6105,3.6164,3.6198,3.6195,3.6233,3.6199,3.629,3.62,3.6325,3.6246,3.628,3.6287,3.6293,3.6299,3.6197,3.6351,3.6618,3.6644,3.6306,3.6303,3.63,0,3.5886,3.5994,3.6104,3.6126,3.6159,3.6211,3.6227,3.6256,3.6295,3.6343,3.6367,3.6426,3.6458,3.6504,3.6486,3.6422,3.6614,3.6523,3.6612,3.6613,3.6654,3.6651,3.6928,3.668,3.668,3.6679,3.6679,0,3.6102,3.6203,3.6182,3.625,3.636,3.6332,3.6442,3.6451,3.6477,3.6544,3.6497,3.6561,3.6535,3.6597,3.6584,3.6689,3.6704,3.6703,3.6697,3.6706,3.6705,3.6726,3.6712,3.6686,3.6685,3.6683,3.6682,0,3.6315,3.6306,3.6421,3.6442,3.645,3.653,3.6547,3.661,3.6608,3.6694,3.6712,3.6709,3.6779,3.6767,3.6845,3.6836,3.6966,3.6947,3.6954,3.6949,3.7038,3.7029,3.7336,3.7374,3.7104,3.7107,3.7109,0,3.6452,3.6528,3.6557,3.6598,3.6618,3.6686,3.6725,3.6701,3.6743,3.6787,3.6844,3.691,3.6962,3.7078,3.7082,3.7141,3.7121,3.7225,3.713,3.7135,3.712,3.7115,3.7121,3.7243,3.7246,3.7248,3.7251,0,3.6695,3.6687,3.6745,3.6802,3.6849,3.6893,3.6931,3.6968,3.6947,3.6997,3.7068,3.7109,3.7188,3.7254,3.7309,3.7325,3.7284,3.7281,3.7304,3.7312,3.7312,3.731,3.7003,3.7273,3.7271,3.7269,3.7268,3.7267,3.6873,3.6936,3.6966,3.7032,3.7059,3.7096,3.7155,3.716,3.7219,3.7281,3.7264,3.7344,3.7375,3.7445,3.7467,3.7529,3.749,3.7525,3.7533,3.7542,3.7551,3.7304,3.7539,3.7539,3.7538,3.7537,3.7537,0,3.7111,3.7127,3.7188,3.7244,3.7295,3.7253,3.7293,3.7339,3.741,3.7443,3.7494,3.7575,3.7639,3.7648,3.7708,3.7756,3.7738,3.7772,3.7767,3.7771,3.7584,3.7556,3.7785,3.7785,3.7785,3.7785,3.7785,3.7785,3.7241,3.7346,3.7341,3.7458,3.7473,3.7551,3.7578,3.7611,3.7636,3.7729,3.7781,3.7787,3.781,3.787,3.7926,3.7927,3.795,3.7991,3.7985,3.7809,3.7784,3.7761,3.7734,3.7997,3.7997,3.8166,3.8168,3.8169]},{"header":{"parameterUnit":"m.s-1","parameterCategory":1,"la1":30.2991,"la2":30.254,"lo1":-89.0895,"lo2":-89.0444,"dy":0.0017,"dx":0.0017,"nx":28,"ny":28,"refTime":"2023-08-10T09:00:00:Z","depth":0,"parameterNumber":3,"parameterNumberName":"V-component_of_WINDS"},"data":[0,0,0,0,0,0,0,0,0,0,0,0,0,0,0,0,0,0,0,0,0,0,0,0,0,0,0,0,0,0,0,0,0,0,0,0,0,0,0,0,0,0,0,0,0,0,0,0,0,0,0,0,0,0,0,0,0,0,6.5254,6.5255,0,6.5347,6.5348,6.5349,6.529,6.5287,6.5284,6.5281,6.537,6.5374,6.5379,0,0,0,0,0,0,0,0,0,0,0,0,0,6.5018,6.5023,6.5254,6.5255,6.5257,6.5347,6.5348,6.5349,6.529,6.5287,6.5283,6.528,6.5368,6.5374,6.538,0,0,0,0,0,0,0,0,0,0,0,0,0,6.5117,6.5024,6.5254,6.5238,6.5238,6.5346,6.5348,6.5349,6.5291,6.5287,6.5283,6.5279,6.5366,6.5373,6.538,6.5508,0,0,6.5403,6.5406,0,0,0,0,0,0,0,0,6.5111,6.5125,6.5239,6.5239,6.5239,6.5303,6.5297,6.5402,6.5292,6.527,6.5281,6.5277,6.535,6.5359,6.5385,6.5512,6.5516,6.5404,6.5408,6.5411,6.5413,0,0,0,0,0,0,0,6.5104,6.5121,6.5291,6.5241,6.5241,6.5224,6.5233,6.5317,6.5332,6.5272,6.5268,6.528,6.5349,6.5378,6.5386,6.5517,6.5403,6.541,6.5414,6.5417,6.575,6.5754,0,0,0,0,0,0,6.51,6.5116,6.5288,6.5293,6.5164,6.5231,6.5242,6.5286,6.5331,6.5334,6.5283,6.5277,6.5367,6.5378,6.5389,6.5539,6.5411,6.5418,6.5422,6.5745,6.5751,6.5755,0,0,0,0,0,0,6.5095,6.5116,6.5284,6.5204,6.5224,6.524,6.529,6.529,6.5319,6.534,6.5341,6.531,6.5364,6.5379,6.5478,6.5541,6.5421,6.5428,6.574,6.5747,6.5753,6.5841,0,0,0,0,0,0,6.5089,6.5114,6.5165,6.5205,6.5228,6.5374,6.5294,6.5295,6.5332,6.5325,6.5365,6.5368,6.5362,6.5468,6.5486,6.5549,6.5434,6.5734,6.5743,6.5751,6.5832,6.5849,6.5864,0,0,0,0,0,6.508,6.5185,6.5168,6.5189,6.5292,6.5378,6.5391,6.5384,6.5338,6.5387,6.54,6.5367,6.5532,6.5479,6.5498,6.5565,6.573,6.5741,6.575,6.5825,6.5846,6.5864,0,0,0,0,0,0,6.515,6.519,6.5172,6.5293,6.5333,6.5368,6.543,6.5407,6.5459,6.545,6.5437,6.5446,6.555,6.5567,6.5507,6.5688,6.5623,6.5638,6.5673,6.5693,6.5709,6.5702,6.544,0,0,0,0,0,6.5181,6.525,6.528,6.5384,6.5405,6.5415,6.5452,6.5443,6.5483,6.5498,6.5519,6.5557,6.5616,6.5656,6.5713,6.5835,6.5841,6.589,6.5906,6.5919,6.5931,6.5993,6.6014,6.5788,6.5788,6.5788,0,0,6.5242,6.5273,6.5317,6.5399,6.5428,6.5497,6.5429,6.5505,6.5555,6.5509,6.5604,6.5621,6.5662,6.5772,6.5822,6.579,6.5995,6.5932,6.5942,6.5946,6.6005,6.6027,6.6046,6.5795,6.5794,6.5792,0,0,6.539,6.5421,6.551,6.5542,6.5588,6.5593,6.5615,6.5653,6.5663,6.5759,6.5725,6.5783,6.5887,6.5917,6.5946,6.6103,6.6072,6.6121,6.6204,6.6265,6.6283,6.6298,6.6351,6.6371,6.6133,6.6134,6.6134,0,6.546,6.5565,6.5558,6.5637,6.5672,6.5636,6.5724,6.5754,6.5815,6.5839,6.5803,6.5932,6.5957,6.6073,6.6111,6.6137,6.6158,6.6116,6.6281,6.6297,6.6311,6.6362,6.6382,6.6139,6.6139,6.6138,6.6137,0,6.5647,6.572,6.5786,6.5848,6.5891,6.5974,6.5977,6.6021,6.6008,6.6016,6.6112,6.6141,6.6202,6.6229,6.6217,6.6342,6.632,6.6283,6.6217,6.6339,6.6385,6.6405,6.6147,6.6145,6.6143,6.6142,0,0,6.5841,6.5898,6.5922,6.5949,6.5996,6.6051,6.6131,6.6192,6.6228,6.6271,6.6335,6.6424,6.639,6.6422,6.6413,6.6467,6.6586,6.6423,6.6423,6.6449,6.6721,6.6747,6.677,6.6567,6.6571,6.6573,6.6717,0,6.5989,6.6131,6.6126,6.6257,6.6322,6.6288,6.6356,6.6391,6.6401,6.6455,6.6465,6.6527,6.6478,6.6497,6.6549,6.656,6.6639,6.655,6.6623,6.6626,6.6612,6.6795,6.6823,6.6957,6.6735,6.6739,6.6741,0,6.6181,6.6232,6.637,6.6406,6.6433,6.6495,6.6549,6.6603,6.664,6.6643,6.6679,6.6661,6.6738,6.6672,6.6776,6.6715,6.6745,6.6754,6.6759,6.6764,6.6689,6.6802,6.7,6.7019,6.677,6.6768,6.6766,0,6.6305,6.6408,6.6503,6.6527,6.6572,6.6616,6.6636,6.667,6.6706,6.6753,6.6775,6.683,6.6859,6.69,6.6896,6.6848,6.7001,6.6935,6.7002,6.7002,6.7034,6.7032,6.7237,6.7058,6.7057,6.7057,6.7057,0,6.6469,6.6554,6.6559,6.6617,6.6709,6.6702,6.6793,6.6809,6.6839,6.6897,6.6871,6.6925,6.6917,6.6971,6.6968,6.7053,6.7067,6.7069,6.7066,6.707,6.7069,6.7087,6.7077,6.7062,6.7061,6.706,6.7059,0,6.6622,6.663,6.673,6.6765,6.6776,6.6842,6.687,6.6923,6.6931,6.7004,6.7021,6.7031,6.7093,6.7093,6.7164,6.7161,6.7264,6.7253,6.7252,6.7249,6.7315,6.7308,6.7538,6.7566,6.7371,6.7373,6.7374,0,6.6726,6.679,6.6832,6.687,6.6893,6.6955,6.6992,6.6986,6.7025,6.7072,6.7119,6.7179,6.7226,6.7326,6.7338,6.739,6.7378,6.7455,6.7386,6.7386,6.7376,6.7371,6.7376,6.7468,6.747,6.7472,6.7473,0,6.6907,6.6907,6.6963,6.7019,6.7064,6.7108,6.7148,6.718,6.7178,6.7223,6.7286,6.7323,6.7395,6.7453,6.7504,6.7522,6.7496,6.7495,6.7513,6.7516,6.7512,6.7512,6.7286,6.7489,6.7488,6.7486,6.7486,6.7485,6.7036,6.7091,6.7129,6.719,6.722,6.7258,6.7309,6.7323,6.7377,6.7436,6.7429,6.7499,6.7532,6.7598,6.762,6.7673,6.7646,6.7673,6.7679,6.7685,6.7691,6.7506,6.7683,6.7682,6.7682,6.7681,6.7681,0,6.7214,6.7236,6.7293,6.7351,6.7398,6.7373,6.7416,6.7456,6.7519,6.7553,6.7601,6.7672,6.7728,6.7745,6.7798,6.7837,6.7826,6.7851,6.7847,6.785,6.7714,6.7692,6.7858,6.7858,6.7858,6.7858,6.7858,6.7858,6.7312,6.7402,6.7406,6.7509,6.753,6.7601,6.7627,6.766,6.7687,6.7769,6.7816,6.7827,6.7853,6.7908,6.7957,6.796,6.798,6.8009,6.8007,6.7878,6.786,6.7843,6.7822,6.8014,6.8014,6.8139,6.814,6.8141]}]]